Location: Ch�teau-Arnoux
(44.0814°N, 6.0027°E)
Time: 10:40:38
(UTC+00:00)

Cosmos 1743 Rocket - Pass Details

Date: 15 November 2019
Orbit: 605 x 632 km, 82.6° (Epoch: 12 December)

Event Time Altitude Azimuth Distance (km) Brightness Sun altitude
Rises 05:33:07 0° 181° (S) 2,861 7.2 -10.5°
Reaches altitude 10° 05:35:20 10° 180° (S) 1,958 6.3 -10.1°
Maximum altitude 05:39:38 72° 96° (E) 643 3.9 -9.4°
Drops below altitude 10° 05:43:58 10° 13° (NNE) 1,964 6.1 -8.6°
Sets 05:46:11 0° 11° (N) 2,871 6.9 -8.3°
